Wolke Sonne

Wetter Ammerndorf

Gehe zu: Roßtal

Tageswerte vom Montag, 13.07.2020

Optionen

Tag:
Erweitert:

Alle Werte vom Montag, 13.07.2020

Einen Moment bitte, die Daten werden aufbereitet...

UhrzeitTemperaturBoden 10cmBoden 20cmFeuchteLuftdruckNiederschlagEvapotranspirationWindWindböenWindrichtungSolarstrahlungUV-IndexSonne?Uhrzeit
Diagramm IconDiagramm IconDiagramm IconDiagramm IconDiagramm IconDiagramm IconDiagramm IconDiagramm IconDiagramm IconDiagramm IconDiagramm IconDiagramm IconDiagramm Icon
00:0011,5 °C 19,4 °C 19,4 °C 74 % 1024,3 hPa 0,0 mm - 0,0 km/h 0,0 km/h NO 0,0 W/qm 0,0 nein 00:00
00:0511,4 °C 18,9 °C 19,4 °C 74 % 1024,2 hPa 0,0 mm 0,0 mm 0,0 km/h 0,0 km/h NO 0,0 W/qm 0,0 nein 00:05
00:1011,3 °C 18,9 °C 19,4 °C 74 % 1024,3 hPa 0,0 mm 0,0 mm 0,0 km/h 0,0 km/h NO 0,0 W/qm 0,0 nein 00:10
00:1511,2 °C 18,9 °C 19,4 °C 74 % 1024,3 hPa 0,0 mm - 0,0 km/h 0,0 km/h NO 0,0 W/qm 0,0 nein 00:15
00:2011,1 °C 18,9 °C 19,4 °C 75 % 1024,4 hPa 0,0 mm - 0,0 km/h 0,0 km/h NO 0,0 W/qm 0,0 nein 00:20
00:2510,9 °C 18,9 °C 19,4 °C 75 % 1024,4 hPa 0,0 mm - 0,0 km/h 0,0 km/h NO 0,0 W/qm 0,0 nein 00:25
00:3010,8 °C 18,9 °C 19,4 °C 75 % 1024,3 hPa 0,0 mm - 0,0 km/h 0,0 km/h NO 0,0 W/qm 0,0 nein 00:30
00:3510,7 °C 18,9 °C 19,4 °C 76 % 1024,4 hPa 0,0 mm - 0,0 km/h 0,0 km/h NO 0,0 W/qm 0,0 nein 00:35
00:4010,6 °C 18,9 °C 19,4 °C 76 % 1024,5 hPa 0,0 mm - 0,0 km/h 0,0 km/h NO 0,0 W/qm 0,0 nein 00:40
00:4510,5 °C 18,9 °C 19,4 °C 77 % 1024,5 hPa 0,0 mm - 0,0 km/h 0,0 km/h NO 0,0 W/qm 0,0 nein 00:45
00:5010,4 °C 18,9 °C 19,4 °C 77 % 1024,5 hPa 0,0 mm - 0,0 km/h 0,0 km/h NO 0,0 W/qm 0,0 nein 00:50
00:5510,3 °C 18,9 °C 19,4 °C 77 % 1024,5 hPa 0,0 mm - 0,0 km/h 0,0 km/h NO 0,0 W/qm 0,0 nein 00:55
01:0010,2 °C 18,9 °C 19,4 °C 78 % 1024,5 hPa 0,0 mm - 0,0 km/h 0,0 km/h NO 0,0 W/qm 0,0 nein 01:00
01:0510,1 °C 18,9 °C 19,4 °C 78 % 1024,4 hPa 0,0 mm 0,0 mm 0,0 km/h 0,0 km/h NO 0,0 W/qm 0,0 nein 01:05
01:1010,0 °C 18,9 °C 19,4 °C 78 % 1024,5 hPa 0,0 mm 0,0 mm 0,0 km/h 0,0 km/h NO 0,0 W/qm 0,0 nein 01:10
01:159,9 °C 18,9 °C 19,4 °C 78 % 1024,6 hPa 0,0 mm - 0,0 km/h 0,0 km/h NO 0,0 W/qm 0,0 nein 01:15
01:209,8 °C 18,3 °C 19,4 °C 78 % 1024,6 hPa 0,0 mm - 0,0 km/h 0,0 km/h NO 0,0 W/qm 0,0 nein 01:20
01:259,7 °C 18,3 °C 19,4 °C 79 % 1024,5 hPa 0,0 mm - 0,0 km/h 0,0 km/h NO 0,0 W/qm 0,0 nein 01:25
01:309,7 °C 18,3 °C 19,4 °C 79 % 1024,5 hPa 0,0 mm - 0,0 km/h 0,0 km/h NO 0,0 W/qm 0,0 nein 01:30
01:359,6 °C 18,3 °C 19,4 °C 80 % 1024,4 hPa 0,0 mm - 0,0 km/h 0,0 km/h NO 0,0 W/qm 0,0 nein 01:35
01:409,5 °C 18,3 °C 19,4 °C 80 % 1024,5 hPa 0,0 mm - 0,0 km/h 0,0 km/h NO 0,0 W/qm 0,0 nein 01:40
01:459,4 °C 18,3 °C 19,4 °C 80 % 1024,4 hPa 0,0 mm - 0,0 km/h 0,0 km/h NO 0,0 W/qm 0,0 nein 01:45
01:509,3 °C 18,3 °C 19,4 °C 80 % 1024,4 hPa 0,0 mm - 0,0 km/h 0,0 km/h NO 0,0 W/qm 0,0 nein 01:50
01:559,3 °C 18,3 °C 19,4 °C 81 % 1024,4 hPa 0,0 mm - 0,0 km/h 0,0 km/h NO 0,0 W/qm 0,0 nein 01:55
UhrzeitTemperaturBoden 10cmBoden 20cmFeuchteLuftdruckNiederschlagEvapotranspirationWindWindböenWindrichtungSolarstrahlungUV-IndexSonne?Uhrzeit
02:009,2 °C 18,3 °C 19,4 °C 81 % 1024,6 hPa 0,0 mm - 0,0 km/h 0,0 km/h NO 0,0 W/qm 0,0 nein 02:00
02:059,1 °C 18,3 °C 19,4 °C 81 % 1024,5 hPa 0,0 mm 0,0 mm 0,0 km/h 0,0 km/h NO 0,0 W/qm 0,0 nein 02:05
02:109,0 °C 18,3 °C 19,4 °C 82 % 1024,5 hPa 0,0 mm 0,0 mm 0,0 km/h 0,0 km/h NO 0,0 W/qm 0,0 nein 02:10
02:158,9 °C 18,3 °C 19,4 °C 82 % 1024,5 hPa 0,0 mm - 0,0 km/h 0,0 km/h NO 0,0 W/qm 0,0 nein 02:15
02:208,8 °C 18,3 °C 19,4 °C 82 % 1024,5 hPa 0,0 mm - 0,0 km/h 0,0 km/h NO 0,0 W/qm 0,0 nein 02:20
02:258,8 °C 18,3 °C 19,4 °C 82 % 1024,5 hPa 0,0 mm - 0,0 km/h 0,0 km/h NO 0,0 W/qm 0,0 nein 02:25
02:308,7 °C 18,3 °C 19,4 °C 82 % 1024,4 hPa 0,0 mm - 0,0 km/h 0,0 km/h NO 0,0 W/qm 0,0 nein 02:30
02:358,6 °C 18,3 °C 19,4 °C 83 % 1024,4 hPa 0,0 mm - 0,0 km/h 0,0 km/h NO 0,0 W/qm 0,0 nein 02:35
02:408,6 °C 18,3 °C 19,4 °C 83 % 1024,4 hPa 0,0 mm - 0,0 km/h 0,0 km/h NO 0,0 W/qm 0,0 nein 02:40
02:458,4 °C 18,3 °C 19,4 °C 83 % 1024,5 hPa 0,0 mm - 0,0 km/h 0,0 km/h NO 0,0 W/qm 0,0 nein 02:45
02:508,4 °C 18,3 °C 19,4 °C 83 % 1024,5 hPa 0,0 mm - 0,0 km/h 0,0 km/h NO 0,0 W/qm 0,0 nein 02:50
02:558,3 °C 17,8 °C 18,9 °C 83 % 1024,5 hPa 0,0 mm - 0,0 km/h 0,0 km/h NO 0,0 W/qm 0,0 nein 02:55
03:008,3 °C 17,8 °C 18,9 °C 84 % 1024,5 hPa 0,0 mm - 0,0 km/h 0,0 km/h NO 0,0 W/qm 0,0 nein 03:00
Gesamt: 9,7 °C 18,5 °C 19,4 °C 79 % 1024,4 hPa 0,0 mm 0,0 mm 0,0 km/h 0,0 km/h 0 0,0 W/qm 0,0 nein

Insgesamt 37 Zeilen mal 13 Spalten = 481 Werte werden angezeigt.

www.wetter-rosstal.de   •   www.wetter-franken.de   •   www.lightningmaps.org   •   Start   •   Kontakt / Datenschutz   •   PC-Kümmerer